FW3598 Weather Reports


Display with metric or nautical units.
time (UTC)temp
F
wind
direction
speed
MPH
gust
MPH
rain 1hr
in
rain 24hr
in
rain mn
in
humidity
%
barometer
mb
20260504130123 57 113 0.0 0.0 0.00 0.00 0.00 83 1008.8
20260504120122 59 23 0.0 0.0 0.00 0.00 0.00 75 1008.8
20260504110124 59 23 0.0 0.0 0.00 0.00 0.00 78 1008.8
20260504100122 59 360 0.0 0.0 0.00 0.00 0.00 78 1008.7
20260504090122 59 23 0.0 0.0 0.00 0.00 0.00 81 1008.7
20260504081123 60 23 0.0 0.0 0.00 0.00 0.00 77 1008.3
20260504080144 60 135 0.0 0.0 0.00 0.00 0.00 77 1008.3
20260504070122 61 23 0.0 0.0 0.00 0.00 0.00 74 1008.1
20260504060144 64 248 0.0 0.0 0.00 0.00 0.00 70 1008.0
20260504050122 68 158 0.0 0.0 0.00 0.00 0.00 59 1008.0
20260504045123 68 45 0.0 0.0 0.00 0.00 0.00 61 1008.0
20260504044122 69 113 0.0 0.0 0.00 0.00 0.00 59 1008.0
20260504043145 70 90 0.0 0.0 0.00 0.00 0.00 58 1008.1
20260504042122 71 338 0.0 0.0 0.00 0.00 0.00 53 1008.0
20260504041143 72 338 0.0 0.0 0.00 0.00 0.00 50 1008.1
20260504040122 73 360 0.0 0.0 0.00 0.00 0.00 51 1007.8
20260504035122 73 360 0.0 0.0 0.00 0.00 0.00 49 1007.8
20260504034143 72 23 0.0 0.0 0.00 0.00 0.00 52 1007.8
20260504033122 74 338 0.0 0.0 0.00 0.00 0.00 53 1008.0
20260504032123 75 90 0.0 0.0 0.00 0.00 0.00 52 1008.0
20260504031122 76 180 0.0 0.0 0.00 0.00 0.00 50 1008.0
20260504030122 78 180 0.0 0.0 0.00 0.00 0.00 47 1008.2
20260504025122 79 270 0.0 0.0 0.00 0.00 0.00 45 1008.2
20260504024122 79 158 0.0 0.0 0.00 0.00 0.00 44 1008.1
20260504023122 82 203 0.0 0.0 0.00 0.00 0.00 43 1008.2
20260504022122 80 270 0.0 0.0 0.00 0.00 0.00 44 1008.3
20260504021144 81 180 0.0 0.0 0.00 0.00 0.00 43 1008.5
20260504020122 84 203 0.0 0.0 0.00 0.00 0.00 38 1008.5
20260504015122 82 203 0.0 0.0 0.00 0.00 0.00 43 1008.5
20260504014122 83 90 0.0 0.0 0.00 0.00 0.00 42 1008.6
20260504013143 83 180 0.0 0.0 0.00 0.00 0.00 43 1008.7
20260504012122 83 158 0.0 0.0 0.00 0.00 0.00 43 1008.8
20260504011122 83 203 0.0 0.0 0.00 0.00 0.00 43 1009.0
20260504010143 83 180 0.0 2.0 0.00 0.00 0.00 44 1009.2
20260504005122 84 270 0.0 0.0 0.00 0.00 0.00 43 1009.2
20260504004122 83 158 0.0 0.0 0.00 0.00 0.00 43 1009.2
20260504003122 84 270 0.0 0.0 0.00 0.00 0.00 43 1009.5
20260504002122 84 270 0.0 0.0 0.00 0.00 0.00 44 1009.6
20260504001143 83 180 0.0 0.0 0.00 0.00 0.00 45 1009.7
20260504000122 82 158 0.0 0.0 0.00 0.00 0.00 46 1009.8
20260503235122 82 270 0.0 0.0 0.00 0.00 0.00 47 1009.8
20260503234122 81 180 0.0 0.0 0.00 0.00 0.00 48 1010.0
20260503233143 81 158 0.0 0.0 0.00 0.00 0.00 48 1010.1
20260503232143 80 180 0.0 0.0 0.00 0.00 0.00 48 1010.3
20260503231143 82 23 0.0 0.0 0.00 0.00 0.00 47 1010.5
20260503230123 80 158 0.0 0.0 0.00 0.00 0.00 47 1010.7
20260503225122 82 270 0.0 0.0 0.00 0.00 0.00 45 1010.7
20260503224124 81 167 0.0 3.0 0.00 0.00 0.00 46 1010.8
20260503223145 79 158 0.0 2.0 0.00 0.00 0.00 47 1011.0
20260503222124 80 154 0.0 3.0 0.00 0.00 0.00 48 1011.1
20260503221124 79 174 0.0 5.0 0.00 0.00 0.00 46 1011.2
20260503220124 80 173 0.0 2.0 0.00 0.00 0.00 47 1011.3
20260503215124 80 180 0.0 0.0 0.00 0.00 0.00 48 1011.3
20260503214124 79 113 0.0 0.0 0.00 0.00 0.00 53 1011.5
20260503213123 76 164 0.0 3.0 0.00 0.00 0.00 54 1011.8
20260503212124 77 184 0.0 4.0 0.00 0.00 0.00 52 1011.8
20260503211124 78 180 0.0 3.0 0.00 0.00 0.00 49 1012.0
20260503210124 78 177 0.0 4.0 0.00 0.00 0.00 48 1012.1
20260503205124 79 203 0.0 0.0 0.00 0.00 0.00 49 1012.1
20260503204123 78 189 0.0 3.0 0.00 0.00 0.00 47 1012.3
20260503203145 79 158 0.0 2.0 0.00 0.00 0.00 50 1012.3
20260503202124 78 147 0.0 3.0 0.00 0.00 0.00 51 1012.5
20260503201124 77 207 0.0 3.0 0.00 0.00 0.00 53 1012.7
20260503200123 76 158 0.0 3.0 0.00 0.00 0.00 57 1012.8
20260503195123 76 202 0.0 2.0 0.00 0.00 0.00 57 1012.8
20260503194123 75 142 0.0 2.0 0.00 0.00 0.00 56 1013.0
20260503193124 74 184 0.0 3.0 0.00 0.00 0.00 57 1013.1
20260503192123 74 180 0.0 2.0 0.00 0.00 0.00 57 1013.2
20260503191123 74 169 0.0 2.0 0.00 0.00 0.00 57 1013.3
20260503190124 75 180 0.0 2.0 0.00 0.00 0.00 60 1013.6
20260503185124 73 180 0.0 3.0 0.00 0.00 0.00 62 1013.6
20260503184124 73 202 0.0 2.0 0.00 0.00 0.00 65 1013.6
20260503183123 72 293 0.0 0.0 0.00 0.00 0.00 65 1013.6
20260503182124 72 203 0.0 0.0 0.00 0.00 0.00 66 1013.7
20260503181145 72 270 0.0 0.0 0.00 0.00 0.00 67 1013.7
20260503180123 72 180 0.0 0.0 0.00 0.00 0.00 67 1013.6
20260503175124 72 203 0.0 0.0 0.00 0.00 0.00 66 1013.6
20260503174124 72 113 0.0 0.0 0.00 0.00 0.00 66 1013.7
20260503173123 72 203 0.0 0.0 0.00 0.00 0.00 66 1013.7
20260503172124 71 225 0.0 0.0 0.00 0.00 0.00 66 1013.8
20260503171123 71 68 0.0 0.0 0.00 0.00 0.00 66 1013.8
20260503170123 70 158 0.0 0.0 0.00 0.00 0.00 65 1014.0
20260503160123 63 158 0.0 0.0 0.00 0.00 0.00 85 1014.5
20260503150144 57 203 0.0 0.0 0.00 0.00 0.00 99 1014.3
20260503140124 53 23 0.0 0.0 0.00 0.00 0.00 99 1014.3